IRIDIUM 106 1 41917U 17003A 26123.93201684 .00000004 00000+0 -57523-5 0 9991 2 41917 86.3932 107.0599 0002438 80.8111 279.3360 14.34217532486866 IRIDIUM 103 1 41918U 17003B 26123.91933166 .00000011 00000+0 -29657-5 0 9992 2 41918 86.3931 106.9650 0002414 94.4836 265.6636 14.34217490486880 IRIDIUM 109 1 41919U 17003C 26123.92567415 .00000001 00000+0 -67714-5 0 9999 2 41919 86.3930 107.0209 0002296 89.3516 270.7943 14.34217381486852 IRIDIUM 102 1 41920U 17003D 26123.89396072 .00000022 00000+0 84894-6 0 9997 2 41920 86.3930 106.9589 0002261 86.6516 273.4939 14.34217714486939 IRIDIUM 105 1 41921U 17003E 26123.92253522 .00000272 00000+0 89700-4 0 9990 2 41921 86.3954 75.3734 0002310 86.8392 273.3068 14.34398581488796 IRIDIUM 104 1 41922U 17003F 26123.90664297 .00000136 00000+0 41434-4 0 9995 2 41922 86.3930 106.9954 0002231 95.1043 265.0407 14.34218969486923 IRIDIUM 114 1 41923U 17003G 26123.91298940 -.00000029 00000+0 -17455-4 0 9994 2 41923 86.3931 106.9763 0002211 92.9714 267.1735 14.34217202486905 IRIDIUM 108 1 41924U 17003H 26123.87151033 .00000051 00000+0 11229-4 0 9997 2 41924 86.3947 75.2873 0002171 83.3382 276.8061 14.34217776488753 IRIDIUM 112 1 41925U 17003J 26123.90030280 .00000041 00000+0 76896-5 0 9993 2 41925 86.3925 106.8255 0002241 91.5045 268.6408 14.34218039486924 IRIDIUM 111 1 41926U 17003K 26123.88761560 .00000146 00000+0 45083-4 0 9992 2 41926 86.3927 106.9003 0002350 90.0580 270.0885 14.34217516486901 IRIDIUM 113 1 42803U 17039A 26123.86758199 .00000080 00000+0 21550-4 0 9998 2 42803 86.3980 340.7116 0002042 92.5697 267.5732 14.34218265464834 IRIDIUM 123 1 42804U 17039B 26123.97883069 .00000065 00000+0 16123-4 0 9999 2 42804 86.4011 12.1140 0002330 85.7582 274.3881 14.34217879463611 IRIDIUM 120 1 42805U 17039C 26123.86124042 .00000041 00000+0 74370-5 0 9990 2 42805 86.3971 340.5027 0002180 82.9604 277.1840 14.34217781464827 IRIDIUM 115 1 42806U 17039D 26123.88549931 .00000313 00000+0 87108-4 0 9995 2 42806 86.4506 340.6152 0002457 84.3922 275.7560 14.43280607467877 IRIDIUM 118 1 42807U 17039E 26123.45239438 .00000031 00000+0 41588-5 0 9997 2 42807 86.4009 12.3320 0002168 86.1611 273.9833 14.34217936463537 IRIDIUM 117 1 42808U 17039F 26123.75049724 .00000095 00000+0 26800-4 0 9997 2 42808 86.4006 12.1655 0002328 86.3779 273.7683 14.34217975463601 IRIDIUM 126 1 42809U 17039G 26123.98517306 .00000077 00000+0 20380-4 0 9996 2 42809 86.4009 12.1180 0002256 89.1374 271.0080 14.34218061463610 IRIDIUM 124 1 42810U 17039H 26123.88867281 .00000104 00000+0 24831-4 0 9993 2 42810 86.4454 308.8948 0002226 89.5749 270.5707 14.43282689468724 IRIDIUM 128 1 42811U 17039J 26123.90614281 .00000065 00000+0 16046-4 0 9992 2 42811 86.3993 43.6552 0002370 79.5049 280.6414 14.34217975463637 IRIDIUM 121 1 42812U 17039K 26123.65536042 .00000254 00000+0 83512-4 0 9995 2 42812 86.4010 12.2832 0002150 82.1669 277.9771 14.34222988463440 IRIDIUM 133 1 42955U 17061A 26123.86808731 .00000065 00000+0 15998-4 0 9991 2 42955 86.3996 43.7881 0002280 84.9783 275.1673 14.34217901448425 IRIDIUM 100 1 42956U 17061B 26123.86174434 .00000098 00000+0 28052-4 0 9999 2 42956 86.3992 43.7102 0002262 84.3208 275.8245 14.34218059448421 IRIDIUM 122 1 42957U 17061C 26123.76026342 .00000062 00000+0 15107-4 0 9991 2 42957 86.3993 43.7527 0002286 86.3609 273.7849 14.34217847448417 IRIDIUM 129 1 42958U 17061D 26123.85540156 .00000045 00000+0 90989-5 0 9999 2 42958 86.3994 43.7794 0002036 90.3922 269.7507 14.34217772448447 IRIDIUM 119 1 42959U 17061E 26123.75392054 .00000059 00000+0 13842-4 0 9998 2 42959 86.3995 43.8176 0002243 88.1416 272.0036 14.34217920448446 IRIDIUM 107 1 42960U 17061F 26123.77294880 .00000055 00000+0 12501-4 0 9997 2 42960 86.3994 43.8306 0002480 85.3415 274.8064 14.34217867448455 IRIDIUM 132 1 42961U 17061G 26123.84905943 .00000056 00000+0 12851-4 0 9994 2 42961 86.3993 43.7785 0002270 85.1562 274.9893 14.34217925448460 IRIDIUM 136 1 42962U 17061H 26123.74123301 .00000050 00000+0 10697-4 0 9994 2 42962 86.3996 43.8300 0002326 86.1722 273.9740 14.34219334448465 IRIDIUM 139 1 42963U 17061J 26123.74757538 .00000194 00000+0 62184-4 0 9997 2 42963 86.3997 43.8888 0002301 82.5755 277.5702 14.34219396448474 IRIDIUM 125 1 42964U 17061K 26123.73489280 .00000061 00000+0 14578-4 0 9990 2 42964 86.3998 43.9543 0002555 94.5616 265.5872 14.34218054448481 IRIDIUM 135 1 43070U 17083A 26123.70901817 .00000063 00000+0 15524-4 0 9999 2 43070 86.3976 340.6176 0002157 86.6951 273.4491 14.34217970437778 IRIDIUM 138 1 43071U 17083B 26123.87392541 .00000022 00000+0 74429-6 0 9992 2 43071 86.3986 340.2371 0002033 95.8359 264.3069 14.34217647437782 IRIDIUM 116 1 43072U 17083C 26123.70269560 .00000202 00000+0 65087-4 0 9997 2 43072 86.3976 340.6068 0002273 78.2958 281.8493 14.34218526437798 IRIDIUM 130 1 43073U 17083D 26123.88026878 .00000014 00000+0 -19965-5 0 9997 2 43073 86.3982 340.8030 0002251 83.2921 276.8531 14.34217542437760 IRIDIUM 151 1 43074U 17083E 26123.92466583 .00000051 00000+0 11128-4 0 9996 2 43074 86.3976 340.5706 0002145 84.9434 275.2006 14.34218019437793 IRIDIUM 134 1 43075U 17083F 26123.89295329 .00000051 00000+0 11152-4 0 9998 2 43075 86.3979 340.5915 0002273 86.1422 274.0034 14.34217951437750 IRIDIUM 137 1 43076U 17083G 26123.90563776 .00000078 00000+0 20816-4 0 9991 2 43076 86.3978 340.6779 0001904 74.7426 285.3980 14.34218027437824 IRIDIUM 141 1 43077U 17083H 26123.68999036 .00000202 00000+0 65056-4 0 9993 2 43077 86.3974 340.6013 0002101 88.8248 271.3189 14.34217966437793 IRIDIUM 153 1 43078U 17083J 26123.92124275 .00000031 00000+0 39398-5 0 9997 2 43078 86.3933 308.9914 0002229 95.0495 265.0955 14.34217820438938 IRIDIUM 131 1 43079U 17083K 26123.88661046 .00000016 00000+0 -14399-5 0 9993 2 43079 86.3979 340.7017 0001969 87.7002 272.4419 14.34217607437758 IRIDIUM 144 1 43249U 18030A 26123.92758747 .00000060 00000+0 14517-4 0 9994 2 43249 86.3930 308.9188 0002170 86.0376 274.1068 14.34218219423798 IRIDIUM 149 1 43250U 18030B 26123.65485565 .00000065 00000+0 16155-4 0 9996 2 43250 86.3929 309.0005 0002099 91.6640 268.4796 14.34218302423779 IRIDIUM 157 1 43251U 18030C 26123.88318741 -.00000030 00000+0 -17696-4 0 9998 2 43251 86.3930 308.9571 0002039 89.3764 270.7665 14.34217370423789 IRIDIUM 140 1 43252U 18030D 26123.90221543 .00000057 00000+0 13221-4 0 9992 2 43252 86.3932 308.9619 0002222 89.0087 271.1363 14.34218462423844 IRIDIUM 145 1 43253U 18030E 26123.88952927 .00000014 00000+0 -21840-5 0 9998 2 43253 86.3931 308.9396 0002132 80.9787 279.1650 14.34217860423773 IRIDIUM 146 1 43254U 18030F 26123.87050176 -.00000008 00000+0 -10060-4 0 9998 2 43254 86.3929 308.9598 0002058 86.2411 273.9020 14.34217610423782 IRIDIUM 148 1 43255U 18030G 26123.90857416 .00000069 00000+0 17639-4 0 9999 2 43255 86.3932 308.9863 0002039 88.3628 271.7802 14.34218564423822 IRIDIUM 142 1 43256U 18030H 26123.87686250 .00000078 00000+0 20788-4 0 9991 2 43256 86.3930 308.8902 0002212 84.5953 275.5495 14.34218378423784 IRIDIUM 150 1 43257U 18030J 26123.91490061 -.00000031 00000+0 -18166-4 0 9998 2 43257 86.3931 308.9892 0002067 88.7217 271.4216 14.34217164423814 IRIDIUM 143 1 43258U 18030K 26123.89587247 .00000065 00000+0 16063-4 0 9998 2 43258 86.3935 309.0880 0002212 86.1668 273.9781 14.34218096423743 IRIDIUM 161 1 43478U 18047C 26123.86658892 .00000189 00000+0 50132-4 0 9994 2 43478 86.4451 107.0050 0002095 92.8754 267.2687 14.43279614418743 IRIDIUM 152 1 43479U 18047D 26123.86859050 .00000017 00000+0 -10660-5 0 9998 2 43479 86.3927 106.8649 0002269 91.4442 268.7014 14.34217683416133 IRIDIUM 147 1 43480U 18047E 26123.87493067 .00000130 00000+0 39506-4 0 9997 2 43480 86.3927 106.8665 0002297 85.6492 274.4966 14.34218942416133 IRIDIUM 110 1 43481U 18047F 26123.88127531 .00000016 00000+0 -12590-5 0 9998 2 43481 86.3928 106.9546 0002055 97.2391 262.9038 14.34217546416123 IRIDIUM 162 1 43482U 18047G 26123.92961621 .00000010 00000+0 -29582-5 0 9993 2 43482 86.4451 106.8702 0002432 90.3915 269.7565 14.43278663418741 IRIDIUM 160 1 43569U 18061A 26123.89687945 .00000229 00000+0 74611-4 0 9998 2 43569 86.3951 75.3123 0002176 86.7468 273.3977 14.34218170407029 IRIDIUM 166 1 43570U 18061B 26123.92225842 .00000234 00000+0 76390-4 0 9990 2 43570 86.3949 75.2526 0002310 82.7091 277.4367 14.34221618407054 IRIDIUM 158 1 43571U 18061C 26123.89053844 .00000029 00000+0 31325-5 0 9990 2 43571 86.3949 75.2759 0002342 88.2782 271.8682 14.34217638407017 IRIDIUM 165 1 43572U 18061D 26123.91590798 .00000065 00000+0 16000-4 0 9990 2 43572 86.3952 75.3109 0002270 82.5437 277.6017 14.34218031407043 IRIDIUM 155 1 43573U 18061E 26123.87785312 .00000069 00000+0 17494-4 0 9996 2 43573 86.3948 75.1978 0002386 86.3469 273.7999 14.34217934407009 IRIDIUM 154 1 43574U 18061F 26123.92859354 .00000015 00000+0 -17303-5 0 9993 2 43574 86.3953 75.3082 0002242 81.7892 278.3558 14.34217558407064 IRIDIUM 163 1 43575U 18061G 26123.90956559 .00000045 00000+0 89280-5 0 9992 2 43575 86.3949 75.2328 0002248 88.7354 271.4099 14.34217134407039 IRIDIUM 156 1 43576U 18061H 26123.88419567 .00000065 00000+0 16224-4 0 9992 2 43576 86.3950 75.2506 0002416 84.6130 275.5341 14.34217981407028 IRIDIUM 164 1 43577U 18061J 26123.86516449 .00000206 00000+0 66351-4 0 9991 2 43577 86.3951 75.2982 0002168 81.4274 278.7168 14.34219462407068 IRIDIUM 159 1 43578U 18061K 26123.90322314 .00000033 00000+0 47066-5 0 9994 2 43578 86.3949 75.2201 0002172 88.2203 271.9241 14.34217841407035 IRIDIUM 180 1 43922U 19002A 26123.97248755 .00000094 00000+0 26599-4 0 9990 2 43922 86.4009 12.0772 0002086 87.1368 273.0066 14.34217807382652 IRIDIUM 176 1 43923U 19002B 26123.97998653 .00000727 00000+0 11144-3 0 9992 2 43923 86.6126 12.0241 0002340 80.1158 280.0323 14.72251036392748 IRIDIUM 168 1 43924U 19002C 26123.96614470 .00000234 00000+0 76454-4 0 9993 2 43924 86.4011 12.1559 0002163 84.7856 275.3586 14.34219363382631 IRIDIUM 173 1 43925U 19002D 26123.95346038 .00000051 00000+0 11260-4 0 9996 2 43925 86.4008 12.0520 0002244 87.6149 272.5304 14.34217785382613 IRIDIUM 169 1 43926U 19002E 26123.73655129 .00000348 00000+0 10713-3 0 9997 2 43926 86.4250 43.7687 0002912 87.6082 272.5450 14.38608697383833 IRIDIUM 172 1 43927U 19002F 26123.94711501 .00000071 00000+0 18181-4 0 9999 2 43927 86.4009 12.0623 0002107 86.4901 273.6536 14.34216766382629 IRIDIUM 175 1 43928U 19002G 26123.91394468 .00000100 00000+0 23549-4 0 9993 2 43928 86.4485 309.0405 0004202 41.2793 318.8726 14.43591701392596 IRIDIUM 171 1 43929U 19002H 26123.92808982 .00000055 00000+0 12494-4 0 9992 2 43929 86.4017 12.3715 0002251 82.1521 277.9930 14.34217903382614 IRIDIUM 170 1 43930U 19002J 26123.78225607 .00000673 00000+0 10289-3 0 9990 2 43930 86.6129 12.1094 0002271 86.8879 273.2599 14.72249270392726 IRIDIUM 167 1 43931U 19002K 26123.92174763 .00000044 00000+0 86389-5 0 9991 2 43931 86.4009 12.0950 0002438 79.6482 280.4989 14.34217837382619 IRIDIUM 181 1 56726U 23068S 26123.87430322 .00000341 00000+0 95247-4 0 9996 2 56726 86.4489 75.3104 0002046 82.5802 277.5632 14.43311522156048 IRIDIUM 177 1 56727U 23068T 26123.90835068 .00000998 00000+0 12773-3 0 9997 2 56727 86.1984 349.8254 0002387 92.7569 267.3925 14.80250575159813 IRIDIUM 174 1 56728U 23068U 26123.97379557 .00000790 00000+0 12144-3 0 9993 2 56728 86.6136 12.1722 0002397 89.4096 270.7396 14.72257192159517 IRIDIUM 178 1 56729U 23068V 26123.69461695 .00001275 00000+0 16436-3 0 9995 2 56729 86.6562 43.9458 0002306 80.7540 279.3943 14.80240403159785 IRIDIUM 179 1 56730U 23068W 26123.75685214 .00001204 00000+0 15507-3 0 9999 2 56730 86.6791 52.7679 0002679 79.6852 280.4671 14.80238295159798